Location: *
(42.2119°N, 8.7403°W)
Time: 08:02:50
(UTC+00:00)

Daily predictions for brighter satellites

Satellite Brightness Start Highest point End
(mag) Time Altitude Azimuth Time Altitude Azimuth Time Altitude Azimuth
Cosmos 2251 Rocket 3.7 19:28:40 10° SSW 19:34:02 88° WNW 19:39:28 10° NNE
CZ-4 R/B 3.1 19:33:09 10° SSW 19:36:40 35° W 19:40:14 10° NNW
Cosmos 1939 Rocket 4.1 19:34:56 10° S 19:38:41 44° W 19:42:25 10° NNW
YAOGAN 1 3.8 19:35:39 10° S 19:39:49 46° W 19:44:00 10° NNW
HJ-1C 3.3 19:38:51 10° SSE 19:42:12 85° ENE 19:45:35 10° N
CSL-04 Rocket 4.2 19:37:13 10° S 19:42:27 63° WSW 19:47:42 10° NNW
Cosmos 1943 3.2 19:38:53 10° SSW 19:44:31 79° ESE 19:50:13 10° NNE
ATLAS 2AS CENTAUR R/B 3.4 19:37:25 10° NNW 19:44:41 45° NE 19:51:21 10° ESE
USA 234 4.4 19:41:14 10° E 19:45:37 19° ESE 19:50:01 10° SSE
Cosmos 2263 4.2 19:40:31 10° NNW 19:46:08 70° ENE 19:51:42 10° SSE
Cosmos 1470 4.2 19:42:33 10° SSW 19:46:15 43° WNW 19:50:01 10° N
Ariane Rocket 3.1 19:41:28 10° SSE 19:46:27 62° ENE 19:51:27 10° N
Cosmos 1626 Rocket 4.3 19:42:14 10° NNW 19:46:30 56° W 19:50:43 10° S
SeaSat 1 3.0 19:41:44 10° NNE 19:46:39 66° WNW 19:51:31 10° SW
Cosmos 1953 2.2 19:42:44 10° S 19:46:42 83° E 19:50:42 10° N
Aureole 2 Rocket 3.3 19:44:19 10° NNW 19:47:40 49° WSW 19:50:54 10° S
Cosmos 1140 Rocket 4.4 19:45:31 10° SSE 19:49:41 25° E 19:53:51 10° NE
Cosmos 1726 2.1 19:46:37 10° S 19:50:19 64° E 19:54:01 10° NNE
IRS-1A Rocket 4.4 19:46:57 10° SSE 19:52:36 68° ENE 19:58:24 10° N
IRIDIUM 104 4.3 19:48:58 10° N 19:54:11 66° E 19:59:21 10° SSE
Cosmos 1656 Rocket 3.9 19:49:25 10° NNW 19:54:59 55° ENE 20:00:25 10° SE
Cosmos 2058 Rocket 4.1 19:53:32 10° SE 19:57:15 26° E 20:01:00 10° NNE
Cosmos 1602 Rocket 4.4 19:53:44 10° NNW 19:58:04 55° W 20:02:19 10° S
Meteor 2-10 4.1 19:53:25 10° S 19:58:51 80° E 20:04:30 10° NNE
FREGAT/IRIS 2.4 19:57:31 10° SSE 20:00:10 55° ENE 20:02:51 10° N
COSMOS 2455 4.0 19:55:55 10° NNW 20:01:00 27° NE 20:05:12 13° E
Cosmos 2184 Rocket 4.0 19:54:57 10° N 20:01:14 67° E 20:07:23 10° SSE
Cosmos 614 Rocket 4.1 19:56:47 10° S 20:01:52 54° ESE 20:06:57 10° NNE
CZ-2C R/B 3.5 19:58:59 10° NE 20:03:13 25° E 20:07:28 10° SSE
IRIDIUM 114 4.3 19:58:05 10° N 20:03:20 80° E 20:08:33 10° S
Cosmos 1726 Rocket 3.8 20:00:50 10° SSE 20:05:04 48° E 20:09:21 10° NNE
ARGOS 3.1 20:01:25 10° SSE 20:06:46 69° ENE 20:12:07 10° N
USA 186 1.7 20:05:43 10° SSE 20:09:03 79° ENE 20:12:16 10° N
Resurs 01 Rocket 3.0 20:08:29 16° ESE 20:10:32 22° ENE 20:13:57 10° NNE
BREEZE-M DEB (TANK) 3.4 20:06:45 10° W 20:12:28 42° NNW 20:14:55 10° NE
IRIDIUM 103 4.4 20:07:16 10° N 20:12:31 84° W 20:17:44 10° S
SL-24 R/B 4.1 20:10:33 10° NNE 20:14:21 42° E 20:17:52 10° S
Cosmos 1825 Rocket 3.5 20:10:05 10° N 20:14:30 84° E 20:18:50 10° S
APEX 4.4 20:12:40 10° NNW 20:19:02 57° ENE 20:22:48 19° SE
Nadezhda 1 Rocket 4.0 20:12:48 10° S 20:19:06 67° E 20:25:25 10° NNE
Cosmos 921 Rocket 4.0 20:16:34 10° N 20:20:13 28° ENE 20:21:45 22° E
GEOS 3 Rocket 4.2 20:16:40 10° SSE 20:21:40 54° WSW 20:26:47 10° NW
Cosmos 407 Rocket 3.4 20:18:24 10° S 20:23:32 71° ESE 20:28:38 10° NNE
Cosmos 2228 3.0 20:19:15 10° S 20:23:32 87° WNW 20:27:54 10° N
Cosmos 2154 Rocket 4.0 20:17:32 10° N 20:23:52 64° E 20:30:07 10° SSE
SL-24 R/B - RUBIN 2 4.2 20:18:33 10° SSW 20:23:59 75° ESE 20:30:11 10° NE
BREEZE-M DEB (TANK) 4.1 20:19:03 10° WNW 20:24:57 46° NNE 20:26:31 23° ENE
Cosmos 1758 Rocket 4.2 20:24:01 10° NNW 20:28:15 56° W 20:32:27 10° S
SPOT 3 Rocket 3.6 20:24:32 14° SSE 20:28:58 64° ENE 20:34:07 10° N
STARLINK-29 2.8 20:26:11 10° SW 20:29:21 76° SE 20:31:20 21° ENE
Cosmos 1461 3.6 20:25:29 10° NNW 20:29:52 46° NE 20:32:00 27° ESE
SJ-6B 3.0 20:26:32 10° S 20:30:38 79° WSW 20:34:47 10° NNW
STARLINK-60 4.0 20:28:27 10° WSW 20:31:37 46° NNW 20:34:48 10° NE
Aureole 1 Rocket 4.2 20:26:40 10° SSW 20:34:26 90° NNE 20:40:33 10° NNE
Cosmos 1606 Rocket 4.1 20:30:29 10° SSW 20:34:51 61° W 20:39:17 10° N
Cosmos 1953 Rocket 3.6 20:31:45 10° N 20:36:15 85° W 20:40:25 12° S
ATLAS 5 CENTAUR R/B 1.4 20:36:13 10° SW 20:40:19 89° WNW 20:44:55 10° NE
Abrixas rocket 3.3 20:39:47 10° NW 20:42:28 30° NNE 20:43:05 27° NE
Cosmos 1954 Rocket 4.0 20:42:37 10° S 20:47:44 55° ESE 20:52:50 10° NNE
Cosmos 1023 Rocket 4.4 20:43:37 10° SSW 20:48:48 89° ESE 20:53:58 10° NNE
Cosmos 2058 4.5 20:48:21 10° NNE 20:50:48 21° ENE 20:50:48 21° ENE
FALCON 9 DEB 3.2 20:48:41 10° WSW 20:52:11 75° NW 20:53:39 32° NE
Cosmos 1300 2.7 20:52:16 52° ESE 20:52:26 53° E 20:56:10 10° NNE
SL-4 R/B 3.6 20:52:55 10° WNW 20:55:50 25° NNW 20:58:16 13° NE
Cosmos 1340 Rocket 3.2 20:53:44 10° SSW 20:57:45 63° W 21:01:46 10° N
STARLINK-1201 4.4 20:55:01 10° NW 20:57:54 28° NNE 20:58:00 28° NNE
STARLINK-67 3.9 20:55:49 10° NW 20:57:33 34° NNW 20:57:33 34° NNW
MOS 1 Rocket 3.6 20:57:52 10° N 21:03:18 87° WNW 21:08:44 10° SSW
NOSS 3-4 (A) 4.0 20:56:29 10° NW 21:03:36 77° WSW 21:08:02 28° SSE
NOSS 3-4 (C) 3.9 20:56:36 10° NW 21:03:43 78° WSW 21:08:07 28° SSE
H-2A R/B 3.8 21:00:32 10° SSW 21:05:02 29° W 21:09:28 10° NW
STARLINK-52 3.7 21:06:48 10° WSW 21:09:57 51° NNW 21:10:02 50° NNW
BREEZE M DEB (TANK) 2.7 21:10:57 10° WSW 21:14:04 87° SSE 21:22:58 10° ENE
MetOp-B 4.1 21:14:21 51° ESE 21:15:26 63° ENE 21:20:44 10° N
Resurs 1-3 4.3 21:14:40 29° SSW 21:16:36 51° W 21:20:54 10° NNW
Iridium 4 Rocket 4.0 21:22:03 10° N 21:24:45 35° NNE 21:24:45 35° NNE
USA 234 3.1 21:22:44 10° NE 21:29:17 76° SE 21:35:49 10° SW
ATLAS 2AS CENTAUR R/B 3.5 21:28:41 10° NW 21:35:40 45° WSW 21:38:50 28° SSW
Landsat 7 4.1 21:37:50 56° NE 21:37:50 56° NE 21:41:53 10° N
Spot 2 Rocket 3.3 21:37:04 82° SE 21:37:17 85° ENE 21:42:24 10° NNW
CZ-4C R/B 4.3 21:33:32 10° NNW 21:39:07 25° NE 21:42:00 20° ENE
Meteor 2-1 Rocket 4.2 21:38:43 69° SE 21:39:09 73° E 21:45:05 10° NNE
Cosmos 2341 Rocket 4.5 21:35:27 10° NNW 21:41:42 58° W 21:44:52 30° SSW
CZ-2C R/B 3.8 21:38:49 10° N 21:43:38 40° WNW 21:48:27 10° SW
Cosmos 1697 Rocket 4.0 21:41:17 10° N 21:45:47 28° NE 21:45:47 28° NE
Resurs 01 Rocket 2.9 21:46:03 32° WSW 21:46:49 35° W 21:50:53 10° NNW
COSMOS 2455 3.1 21:41:24 10° NW 21:47:19 59° WSW 21:48:21 52° SSW
BREEZE M DEB (TANK) 4.1 21:45:48 10° W 21:52:22 41° NNW 21:52:39 40° NNW
ATLAS CENTAUR R/B 3.9 21:52:11 10° N 21:52:56 12° NNE 21:52:56 12° NNE
Cosmos 2218 Rocket 4.1 21:49:48 10° NNW 21:56:00 73° W 21:57:06 59° SSW
Cosmos 468 Rocket 4.2 21:53:50 10° NNW 21:58:10 62° N 21:58:10 62° N
USA 245 4.4 21:59:08 65° SW 21:59:39 69° W 22:05:56 10° NNW
ERS-1 Rocket 3.6 22:07:20 51° N 22:07:20 51° N 22:11:06 10° N
Meteor 2-12 Rocket 4.4 22:01:28 10° N 22:07:34 79° W 22:07:36 79° W
SPOT 5 4.3 22:13:27 29° N 22:13:27 29° N 22:15:36 10° N
Cosmos 1656 4.1 22:07:42 10° NNW 22:12:23 59° N 22:12:23 59° N
Cosmos 1980 Rocket 3.8 22:10:42 10° N 22:14:19 25° NE 22:14:19 25° NE
Terra 3.3 22:21:20 32° N 22:21:20 32° N 22:23:55 10° N
Nadezhda 3 Rocket 4.4 22:35:03 60° N 22:35:03 60° N 22:40:06 10° N
Cosmos 2082 Rocket 4.3 22:45:47 17° NE 22:45:47 17° NE 22:47:01 10° NNE
Cosmos 1833 Rocket 4.3 22:55:21 28° NNE 22:55:21 28° NNE 22:57:58 10° NNE
USA 234 4.3 23:05:59 10° NE 23:11:59 40° NNW 23:17:59 10° W
Mayak 1.9 23:24:12 10° N 23:24:21 11° N 23:24:21 11° N
CZ-4C R/B 3.3 23:21:25 10° NNW 23:27:10 59° NNW 23:27:10 59° NNW
Cosmos 1697 Rocket 4.5 23:24:53 10° NW 23:27:31 26° NW 23:27:31 26° NW
SL-16 R/B 4.1 23:43:32 10° NNW 23:46:05 25° N 23:46:05 25° N
Cosmos 2360 Rocket 4.4 23:47:49 10° N 23:50:15 18° NNE 23:50:15 18° NNE
